Simultaneous Nadir Overpasses (SNOs) Predictions

Prediction of SNOs between GOES-15 and METOP-B Satellite Orbit:

Table of predicted SNOs for the next 14.0 days since TLE Epoch: 11/16/2024
Index Date Time (GOES-15) GOES-15 Lat,Lon METOP-B Lat,Lon Distance(km) Time Diff (sec)
1 11/16/2024 16:52:38 0.23, 61.67 1.09, 65.45 430.70 80
2 11/18/2024 05:11:21 -0.22, 61.58 -0.08, 60.90 76.30 80
3 11/19/2024 04:53:16 -0.21, 61.59 -1.16, 65.92 492.75 80
4 11/20/2024 17:12:07 0.20, 61.74 0.12, 61.35 44.98 80
5 11/23/2024 05:10:05 -0.19, 61.68 -0.22, 61.82 15.31 80
6 11/25/2024 17:05:31 0.19, 61.84 0.30, 62.25 47.76 80
7 11/27/2024 05:24:13 -0.18, 61.77 0.73, 57.72 462.25 80
8 11/28/2024 05:06:07 -0.18, 61.79 -0.38, 62.73 106.65 80
9 11/29/2024 17:24:58 0.17, 61.92 -0.68, 58.16 428.67 80
